This demonstration page uses our WeatherBlox Daily Observations layout. Learn more.

Left ArrowRight Arrow

Hourly Observations for January 3, 2017

Temp ( °F °C ) Dew Point ( °F °C ) Humidity (%) Winds ( mph kmh ) Pressure ( in mb ) Visibility ( mi km ) Precip ( " mm )
12:15 am 00:15 Cloudy 50 10 50 10 100 100 N N/A 29.83 1010 1 2 N/A
12:34 am 00:34 Cloudy 50 10 50 10 100 100 N N/A 29.83 1010 1 1 N/A
12:55 am 00:55 Cloudy 50 10 50 10 100 100 N N/A 29.83 1010 1 2 N/A
1:14 am 01:14 Cloudy 50 10 50 10 100 100 SE 3 6 29.80 1009 1 1 N/A
1:35 am 01:35 Cloudy 50 10 50 10 100 100 N N/A 29.80 1009 1 2 N/A
1:55 am 01:55 Cloudy 50 10 50 10 100 100 N N/A 29.80 1009 1 1 N/A
2:14 am 02:14 Cloudy 50 10 50 10 100 100 N N/A 29.77 1008 1 1 N/A
2:35 am 02:35 Cloudy 50 10 50 10 100 100 N N/A 29.77 1008 1 1 N/A
2:54 am 02:54 Cloudy 48 9 48 9 100 100 N N/A 29.80 1009 1 1 N/A
3:15 am 03:15 Cloudy 50 10 48 9 94 94 N N/A 29.77 1008 1 1 N/A
3:34 am 03:34 Cloudy 48 9 48 9 100 100 N N/A 29.80 1009 1 1 N/A
3:55 am 03:55 Cloudy 48 9 48 9 100 100 N N/A 29.74 1007 0 0 N/A
4:15 am 04:15 Cloudy 48 9 48 9 100 100 N N/A 29.74 1007 0 0 N/A
4:34 am 04:34 Cloudy 48 9 48 9 100 100 N N/A 29.74 1007 0 0 N/A
4:55 am 04:55 Cloudy 48 9 48 9 100 100 N 5 7 29.74 1007 1 1 N/A
5:14 am 05:14 Cloudy 48 9 48 9 100 100 NNW 3 6 29.74 1007 0 0 N/A
5:35 am 05:35 Cloudy 48 9 46 8 94 94 NNW 5 7 29.74 1007 0 0 N/A
5:55 am 05:55 Cloudy 46 8 46 8 100 100 NNW 5 7 29.77 1008 1 1 N/A
6:14 am 06:14 Cloudy 46 8 46 8 100 100 NNW 5 7 29.77 1008 2 3 N/A
6:35 am 06:35 Cloudy 46 8 46 8 100 100 NNW 5 7 29.77 1008 3 5 N/A
6:54 am 06:54 Cloudy 46 8 46 8 100 100 N 6 9 29.74 1007 4 6 N/A
7:14 am 07:14 Cloudy 46 8 45 7 93 93 N N/A 29.74 1007 4 6 N/A
7:35 am 07:35 Cloudy 45 7 45 7 100 100 N N/A 29.74 1007 4 6 N/A
7:55 am 07:55 Cloudy 45 7 45 7 100 100 NNW 5 7 29.74 1007 5 8 N/A
8:14 am 08:14 Cloudy 45 7 45 7 100 100 N 5 7 29.74 1007 5 8 N/A
8:35 am 08:35 Cloudy 45 7 45 7 100 100 N 5 7 29.74 1007 2 3 N/A
8:54 am 08:54 Cloudy 45 7 45 7 100 100 N N/A 29.74 1007 1 2 N/A
9:15 am 09:15 Cloudy 45 7 45 7 100 100 WNW 3 6 29.77 1008 1 1 N/A
9:34 am 09:34 Cloudy 46 8 45 7 93 93 W 6 9 29.77 1008 1 1 N/A
9:54 am 09:54 Cloudy 46 8 46 8 100 100 W 3 6 29.77 1008 2 2 N/A
10:15 am 10:15 Cloudy 46 8 46 8 100 100 NW 6 9 29.77 1008 2 3 N/A
10:32 am 10:32 Cloudy 46 8 46 8 100 100 NNW 5 7 29.77 1008 3 4 N/A
10:55 am 10:55 Cloudy 46 8 46 8 100 100 NNW 5 7 29.77 1008 5 8 N/A
11:15 am 11:15 Cloudy 46 8 46 8 100 100 NNW 3 6 29.74 1007 5 8 N/A
11:54 am 11:54 Cloudy 46 8 46 8 100 100 NNW 7 11 29.74 1007 5 8 N/A
12:15 pm 12:15 Cloudy 46 8 46 8 100 100 NNW 8 13 29.74 1007 7 11 N/A
12:35 pm 12:35 Cloudy 46 8 46 8 100 100 NNW 7 11 29.71 1006 5 8 N/A
12:54 pm 12:54 Cloudy 46 8 46 8 100 100 N 6 9 29.71 1006 5 8 N/A
1:15 pm 13:15 Cloudy 46 8 46 8 100 100 W 8 13 29.71 1006 5 8 N/A
1:34 pm 13:34 Cloudy 46 8 46 8 100 100 undefined N/A 29.71 1006 5 8 N/A
1:55 pm 13:55 Cloudy 46 8 46 8 100 100 W 6 9 29.71 1006 4 6 N/A
2:15 pm 14:15 Cloudy 46 8 46 8 100 100 NNW 5 7 29.68 1005 4 6 N/A
2:34 pm 14:34 Cloudy 46 8 46 8 100 100 NW 3 6 29.68 1005 4 6 N/A
2:55 pm 14:55 Cloudy 46 8 46 8 100 100 NW 3 6 29.68 1005 4 6 N/A
3:14 pm 15:14 Cloudy 46 8 46 8 100 100 W 20 31 29.74 1007 4 6 N/A
3:35 pm 15:35 Cloudy 45 7 45 7 100 100 NW 24 39 29.74 1007 3 5 N/A
3:55 pm 15:55 Cloudy 45 7 43 6 93 93 N 18 30 29.71 1006 4 6 N/A
4:14 pm 16:14 Cloudy 45 7 45 7 100 100 N 13 20 29.71 1006 10 16 N/A
4:35 pm 16:35 Mostly Cloudy 45 7 45 7 100 100 NNW 6 9 29.71 1006 10 16 N/A
4:54 pm 16:54 Mostly Cloudy 45 7 45 7 100 100 WNW 13 20 29.74 1007 10 16 N/A
5:15 pm 17:15 Cloudy 45 7 43 6 93 93 NW 8 13 29.74 1007 10 16 N/A
5:35 pm 17:35 Cloudy 43 6 43 6 100 100 WNW 10 17 29.74 1007 10 16 N/A
5:54 pm 17:54 Cloudy 43 6 43 6 100 100 WNW 8 13 29.74 1007 10 16 N/A
6:15 pm 18:15 Cloudy 43 6 41 5 93 93 WNW 12 19 29.77 1008 5 8 N/A
6:35 pm 18:35 Cloudy 43 6 41 5 93 93 NW 14 22 29.77 1008 7 11 N/A
6:54 pm 18:54 Cloudy 41 5 41 5 100 100 NW 10 17 29.77 1008 10 16 N/A
7:15 pm 19:15 Cloudy 41 5 41 5 100 100 NW 14 22 29.77 1008 10 16 N/A
7:34 pm 19:34 Cloudy 41 5 41 5 100 100 WNW 15 24 29.80 1009 3 4 N/A
7:55 pm 19:55 Cloudy 41 5 39 4 93 93 WNW 14 22 29.80 1009 3 4 N/A
8:15 pm 20:15 Cloudy 41 5 39 4 93 93 WNW 21 33 29.80 1009 3 4 N/A
8:34 pm 20:34 Cloudy 39 4 39 4 100 100 NW 14 22 29.80 1009 3 4 N/A
8:55 pm 20:55 Cloudy 39 4 37 3 93 93 WNW 16 26 29.80 1009 3 5 N/A
9:14 pm 21:14 Cloudy 39 4 37 3 93 93 WNW 20 31 29.83 1010 5 8 N/A
9:35 pm 21:35 Cloudy 37 3 37 3 100 100 NW 17 28 29.83 1010 5 8 N/A
9:55 pm 21:55 Cloudy 37 3 36 2 93 93 WNW 18 30 29.83 1010 10 16 N/A
10:14 pm 22:14 Cloudy 36 2 36 2 100 100 NW 21 33 29.85 1011 10 16 N/A
10:35 pm 22:35 Cloudy 36 2 34 1 93 93 NW 15 24 29.85 1011 7 11 N/A
10:55 pm 22:55 Cloudy 36 2 34 1 93 93 WNW 10 17 29.85 1011 10 16 N/A
11:15 pm 23:15 Cloudy 36 2 34 1 93 93 WNW 16 26 29.85 1011 10 16 N/A
11:35 pm 23:35 Cloudy 36 2 34 1 93 93 NW 17 28 29.85 1011 10 16 N/A
11:54 pm 23:54 Cloudy 36 2 34 1 93 93 WNW 18 30 29.85 1011 10 16 N/A

Powered by AerisWeather